Location: Newark
(39.6867°N, 100.6772°W)
Time: 14:58:37
(UTC+00:00)

Vanguard 1 Rocket - Pass Details

Date: 22 October 2019
Orbit: 651 x 4226 km, 34.3° (Epoch: 17 November)

Event Time Altitude Azimuth Distance (km) Brightness Sun altitude
Rises 17:32:42 0° 250° (WSW) 5,271 11.3 37.6°
Reaches altitude 10° 17:35:28 10° 248° (WSW) 4,624 11.2 37.8°
Maximum altitude 17:49:48 72° 168° (SSE) 3,351 11.4 38.4°
Drops below altitude 10° 18:14:45 10° 90° (E) 7,416 12.2 39.1°
Sets 18:20:44 0° 89° (E) 8,461 12.4 39.1°
